Retour au catalogue

STARLINK-31923

ActifCommunicationsVLEO
NORAD 60600·PAYLOAD·🇺🇸 United States

Lancé Aug 20, 2024 depuis Cape Canaveral Space Force Station

Loading…

Prochains Passages (prochaines 24 heures)

TLE

FraisSource: CelesTrak SupGP

Époque: Sep 14, 2026, 20:51 UTC

1 60600C 24150T   26257.86923611 -.00049940  00000+0 -14751-2 0  2576
2 60600  53.1581 147.7279 0001274 102.5618 264.4085 15.34424290    15

Suivez STARLINK-31923 en temps réel avec AllMySat

Download on the App Store